7 * 24
多渠道服务支持
STARLINK-1954是美国太空探索技术公司星链卫星星座中的一颗卫星,于2021年2月4日发射。星链计划旨在构建全球卫星互联网星座,为全球偏远地区、海洋等场景提供高速互联网接入服务,该卫星承担着卫星星座组网运营,拓展全球网络覆盖范围的相关任务。
美国
(US)
| 数据来源 | 国际轨道数据 | AOE轨道数据 |
| 星历时间 | 2026-09-10T12:02:12+0800 1天前 查看轨道信息 | 2026-09-05T12:00:00+0800 6天前 查看轨道信息 |
| 半长轴 | 6796.454km | 6798.074km |
| 偏心率 | 0.0003994 | 0.000388 |
| 轨道倾角 | 53.047° | 53.048° |
| 近地点辐角 | 63.191° | 42.763° |
| 升交点赤经 | 217.707° | 241.682° |
| 平近点角 | 296.951° | 127.880° |
| 近地点 | 415.602km | 417.299km |
| 远地点 | 421.032km | 422.575km |
| 周期 | 92.936分钟 | 92.969分钟 |
| 每日圈数 | 15.494559 | 15.489023 |
| 事件ID | 空间交会对象 | 最接近时刻(TCA) | 交会距离 | 交会风险概率(CRP) | 交会风险指数(CRI) | 操作 |
|---|---|---|---|---|---|---|
| CDM_260911-190104-177104-755522 |
SKYSAT C4
(41771)
STARLINK-1954
(47555) | 2026-09-11T 19:01:31+0000 |
0.252 km
中距离 | 5.252312E-4 高风险 | 0.89 | |
| CDM_260912-104204-755505-825823 |
STARLINK-1954
(47555)
ORBASTRO-PC-1
(58258) | 2026-09-12T 10:42:42+0000 |
1.666 km
极远距离 | 4.615153E-6 低风险 | 0.48 | |
| CDM_260911-203404-177104-755521 |
SKYSAT C4
(41771)
STARLINK-1954
(47555) | 2026-09-11T 20:34:27+0000 |
2.571 km
极远距离 | 1.264586E-6 低风险 | 0.37 | |
| CDM_260911-172804-177104-755523 |
SKYSAT C4
(41771)
STARLINK-1954
(47555) | 2026-09-11T 17:28:35+0000 |
2.702 km
极远距离 | 1.166826E-6 低风险 | 0.36 |